Regional Weather Roundup
Issued by NWS

Home | Current Version | Previous Version | Text Only | Print | Product List | Glossary On
Versions: 1 2 3 4 5 6 7 8 9 10 11 12 13 14 15 16 17 18 19 20 21 22 23 24 25 26 27 28 29 30 31 32 33 34 35 36 37 38 39 40 41 42 43 44 45 46 47 48 49 50
000
ASUS45 KBOI 040510
RWRID

IDAHO REGIONAL WEATHER ROUNDUP
NATIONAL WEATHER SERVICE BOISE ID
1100 PM MDT FRI JUL 03 2015

NOTE: "FAIR" INDICATES FEW OR NO CLOUDS BELOW 12000 FEET
WITH NO SIGNIFICANT WEATHER AND/OR OBSTRUCTIONS TO VISIBILITY

IDZ012-014-040600-
SOUTHWEST IDAHO


CITY           SKY/WX    TMP DP  RH WIND       PRES   REMARKS
BOISE          MOCLDY    88  44  21 CALM      29.82R
CALDWELL       MOCLDY    82  50  32 CALM      29.81R
MOUNTAIN HOME  MOCLDY    85  36  17 NW6       29.82R
$$

IDZ016-017-040600-
SOUTHCENTRAL IDAHO


CITY           SKY/WX    TMP DP  RH WIND       PRES   REMARKS
BURLEY         MOCLDY    75  53  46 S13       29.92R
JEROME         PTCLDY    77  50  38 SE7       29.93R
TWIN FALLS     MOCLDY    82  46  28 S10       29.91S
$$

IDZ019>023-040600-
SOUTHEAST IDAHO


CITY           SKY/WX    TMP DP  RH WIND       PRES   REMARKS
IDAHO FALLS    MOCLDY    77  52  41 S13       29.91R
POCATELLO      CLEAR     81  45  28 SW18      29.93R
REXBURG        PTCLDY    78  50  37 CALM      29.92R
$$

IDZ006-010-011-018-031-032-040600-
CENTRAL IDAHO MOUNTAINS


CITY           SKY/WX    TMP DP  RH WIND       PRES   REMARKS
MCCALL         CLEAR     74  42  31 N5        30.00R
HAILEY         CLEAR     72  43  35 NW9       30.01R
STANLEY          N/A     60  31  33 S6        30.14R
SALMON         CLEAR     75  39  27 S5        29.90R
CHALLIS        CLEAR     76  34  21 NW5       29.98R
$$

IDZ002-004-006-007-026-040600-
NORTHERN IDAHO


CITY           SKY/WX    TMP DP  RH WIND       PRES   REMARKS
LEWISTON       CLEAR     88  42  20 S6        29.75R
LOWELL           N/A     73  55  53 N3        29.80R
COEUR D`ALENE  CLEAR     75  46  35 S7        29.78R
MULLAN PASS    CLEAR     72  35  25 SW6       30.09S
$$


USA.gov is the U.S. government's official web portal to all federal, state and local government web resources and services.